Kezdőlap
METAR-TAF:

METAR-TAF

Repülőterek :

Hannibal, Missouri, Amerikai Egyesült Államok

földrajzi szélesség: 39-43-31N, földrajzi hosszúság: 091-26-38W, magasság: 234 m

Jelenlegi meteorológiai megfigyelések

A jelentés 17 perccel ezelõtt készült, 16:55 UTC
Keleti szél 12 kt széllökések: 21 kt
Hőmérséklet 17°C
Páratartalom 55%
Légköri nyomás 1014 hPa
Látótávolság: 16.1 km
Derült ég

METAR: KHAE 181655Z AUTO 09012G21KT 10SM CLR 17/08 A2993 RMK AO2 LTG DSNT W

Idő: 12:12 (17:12 UTC)


TAF: hiányzik

Meteorológiai megfigyelések és előrejelzések több, mint 4000 repülőtéren (METAR és TAF jelentéseket).

A térképen piros és sárga pontok jelzik az elérhető meteorológiai állomásokat.

Mozgassa az egeret a pont fölött, hogy megjelenjen az állomás neve.

Azután kattintson az időjárási megfigyelések és előrejelzések megtekintéséhez.

A térkép megváltoztatása: kattintson a fekete keresztel jelölt zöld gombra ráközelítéshez, a vonallal jelölt zöld gombra távolításhoz, vagy a zöld nyilakra a szomszédos térképek eléréséhez.


METAR-TAF: